Location: Sungai Liu
(2.3667°N, 113.8667°E)
Time: 13:47:27
(UTC+00:00)

GEOS 3 Rocket - Pass Details

Date: 20 May 2022
Orbit: 790 x 828 km, 115.0° (Epoch: 04 July)

Event Time Altitude Azimuth Distance (km) Brightness Sun altitude
Rises 21:22:58 0° 22° (NNE) 3,317 7.5 -12.8°
Reaches altitude 10° 21:25:16 10° 20° (NNE) 2,393 6.7 -12.3°
Maximum altitude 21:30:25 65° 299° (WNW) 898 3.7 -11.1°
Drops below altitude 10° 21:35:38 10° 217° (SW) 2,421 5.6 -9.8°
Enters shadow 21:36:22 - 216° (SW) 2,717 5.8 -9.7°
